When you browse on this site, cookies collect data to enhance your experience and personalize the content and advertising you see.
Visit our Privacy Policy to learn more. By continuing to use the site, you agree to this use of cookies and data.
  • In Schweiz
  • Länderverzeichnis
  • Für 7 Tage
  • Wassertemperatur
  • Satellitenkarten
  • Wetterkarte
  • Widgets
  • user-avatar
    Anmelden

    Stündliche Wetter Knapy

    Heute, 18 Februar, Montag

    Zeit Temperatur Niederschläge Wind Luftdruck Luftfeuchtigkeit
    00:00 +5°C° 0 mm 1 m/S 753 mmHg 72%
    01:00 +5°C° 0 mm 1 m/S 753 mmHg 72%
    02:00 +5°C° 0 mm 1 m/S 753 mmHg 74%
    03:00 +4°C° 0 mm 1 m/S 753 mmHg 76%
    04:00 +4°C° 0 mm 1 m/S 752 mmHg 78%
    05:00 +4°C° 0 mm 1 m/S 752 mmHg 79%
    06:00 +2°C° 0 mm 2 m/S 752 mmHg 79%
    07:00 +2°C° 0 mm 2 m/S 752 mmHg 80%
    08:00 +3°C° 0 mm 2 m/S 752 mmHg 75%
    09:00 +5°C° 0 mm 1 m/S 752 mmHg 70%
    10:00 +7°C° 0 mm 1 m/S 752 mmHg 65%
    11:00 +8°C° 0 mm 1 m/S 752 mmHg 59%
    12:00 +9°C° 0 mm 1 m/S 751 mmHg 53%
    13:00 +10°C° 0 mm 1 m/S 751 mmHg 48%
    14:00 +10°C° 0 mm 1 m/S 751 mmHg 49%
    15:00 +10°C° 0 mm 1 m/S 751 mmHg 51%
    16:00 +10°C° 0 mm 1 m/S 750 mmHg 52%
    17:00 +8°C° 0 mm 2 m/S 750 mmHg 55%
    18:00 +7°C° 0 mm 2 m/S 750 mmHg 59%
    19:00 +6°C° 0 mm 2 m/S 750 mmHg 62%
    20:00 +6°C° 0 mm 2 m/S 750 mmHg 65%
    21:00 +5°C° 0 mm 2 m/S 750 mmHg 68%
    22:00 +5°C° 0 mm 2 m/S 749 mmHg 71%
    23:00 +3°C° 0 mm 3 m/S 749 mmHg 74%

    Morgen, 19 Februar, Dienstag

    Zeit Temperatur Niederschläge Wind Luftdruck Luftfeuchtigkeit
    00:00 +3°C° 0 mm 3 m/S 749 mmHg 76%
    01:00 +2°C° 0 mm 3 m/S 749 mmHg 79%
    02:00 +2°C° 0 mm 3 m/S 749 mmHg 79%
    03:00 +2°C° 0 mm 3 m/S 748 mmHg 79%
    04:00 +1°C° 0 mm 3 m/S 748 mmHg 80%
    05:00 +1°C° 0 mm 3 m/S 748 mmHg 80%
    06:00 +1°C° 0 mm 3 m/S 748 mmHg 81%
    07:00 +1°C° 0 mm 3 m/S 747 mmHg 82%
    08:00 +1°C° 0 mm 4 m/S 747 mmHg 77%
    09:00 +3°C° 0 mm 4 m/S 747 mmHg 71%
    10:00 +5°C° 0 mm 4 m/S 747 mmHg 66%
    11:00 +6°C° 0 mm 4 m/S 747 mmHg 62%
    12:00 +7°C° 0 mm 4 m/S 746 mmHg 58%
    13:00 +10°C° 0 mm 4 m/S 746 mmHg 54%
    14:00 +10°C° 0 mm 4 m/S 746 mmHg 55%
    15:00 +10°C° 0 mm 4 m/S 746 mmHg 56%
    16:00 +10°C° 0 mm 3 m/S 745 mmHg 57%
    17:00 +9°C° 0 mm 3 m/S 746 mmHg 61%
    18:00 +7°C° 0 mm 4 m/S 746 mmHg 66%
    19:00 +6°C° 0 mm 4 m/S 746 mmHg 70%
    20:00 +5°C° 0.5 mm 4 m/S 746 mmHg 76%
    21:00 +5°C° 0.5 mm 5 m/S 747 mmHg 83%
    22:00 +5°C° 0.5 mm 5 m/S 747 mmHg 89%
    23:00 +5°C° 0.4 mm 5 m/S 747 mmHg 89%

    übermorgen, 20 Februar, Mittwoch

    Zeit Temperatur Niederschläge Wind Luftdruck Luftfeuchtigkeit
    00:00 +4°C° 0.4 mm 4 m/S 747 mmHg 89%
    01:00 +4°C° 0.4 mm 4 m/S 748 mmHg 89%
    02:00 +4°C° 0 mm 4 m/S 748 mmHg 90%
    03:00 +2°C° 0 mm 5 m/S 748 mmHg 91%
    04:00 +1°C° 0 mm 5 m/S 748 mmHg 91%
    05:00 +1°C° 0 mm 5 m/S 749 mmHg 92%
    06:00 +1°C° 0 mm 5 m/S 749 mmHg 92%
    07:00 +1°C° 0 mm 5 m/S 749 mmHg 93%
    08:00 +2°C° 0 mm 5 m/S 750 mmHg 88%
    09:00 +2°C° 0 mm 5 m/S 750 mmHg 83%
    10:00 +3°C° 0 mm 6 m/S 750 mmHg 78%
    11:00 +4°C° 0.1 mm 6 m/S 750 mmHg 74%
    12:00 +4°C° 0.1 mm 6 m/S 750 mmHg 70%
    13:00 +5°C° 0.1 mm 6 m/S 750 mmHg 65%
    14:00 +5°C° 0 mm 6 m/S 750 mmHg 65%
    15:00 +5°C° 0 mm 6 m/S 751 mmHg 65%
    16:00 +5°C° 0 mm 6 m/S 751 mmHg 65%
    17:00 +5°C° 0 mm 5 m/S 751 mmHg 70%
    18:00 +4°C° 0 mm 4 m/S 751 mmHg 75%
    19:00 +4°C° 0 mm 3 m/S 752 mmHg 80%
    20:00 +4°C° 0.1 mm 3 m/S 752 mmHg 81%
    21:00 +4°C° 0.1 mm 3 m/S 752 mmHg 82%
    22:00 +4°C° 0.1 mm 3 m/S 752 mmHg 84%
    23:00 +4°C° 0 mm 3 m/S 752 mmHg 84%

    21 Februar, Donnerstag

    Zeit Temperatur Niederschläge Wind Luftdruck Luftfeuchtigkeit
    00:00 +3°C° 0 mm 3 m/S 753 mmHg 84%
    01:00 +3°C° 0 mm 4 m/S 753 mmHg 85%
    02:00 +3°C° 0 mm 4 m/S 753 mmHg 86%
    03:00 +1°C° 0 mm 4 m/S 753 mmHg 87%
    04:00 +1°C° 0 mm 4 m/S 753 mmHg 88%
    05:00 +1°C° 0 mm 4 m/S 753 mmHg 89%
    06:00 +1°C° 0 mm 4 m/S 753 mmHg 90%
    07:00 +1°C° 0 mm 4 m/S 753 mmHg 91%
    08:00 +1°C° 0.1 mm 4 m/S 753 mmHg 88%
    09:00 +3°C° 0.1 mm 4 m/S 754 mmHg 85%
    10:00 +4°C° 0.1 mm 4 m/S 754 mmHg 82%
    11:00 +4°C° 0 mm 4 m/S 754 mmHg 78%
    12:00 +5°C° 0 mm 4 m/S 754 mmHg 74%
    13:00 +6°C° 0 mm 5 m/S 754 mmHg 70%
    14:00 +6°C° 0 mm 4 m/S 754 mmHg 70%
    15:00 +7°C° 0 mm 4 m/S 754 mmHg 70%
    16:00 +8°C° 0 mm 3 m/S 753 mmHg 69%
    17:00 +7°C° 0.1 mm 3 m/S 754 mmHg 75%
    18:00 +7°C° 0.1 mm 3 m/S 754 mmHg 80%
    19:00 +5°C° 0.1 mm 3 m/S 754 mmHg 85%
    20:00 +5°C° 0.2 mm 3 m/S 754 mmHg 87%
    21:00 +5°C° 0.2 mm 3 m/S 755 mmHg 89%
    22:00 +5°C° 0.2 mm 3 m/S 755 mmHg 91%
    23:00 +5°C° 0 mm 2 m/S 755 mmHg 92%

    22 Februar, Freitag

    Zeit Temperatur Niederschläge Wind Luftdruck Luftfeuchtigkeit
    00:00 +5°C° 0 mm 2 m/S 755 mmHg 94%
    01:00 +4°C° 0 mm 2 m/S 756 mmHg 95%
    02:00 +4°C° 0 mm 2 m/S 756 mmHg 96%
    03:00 +5°C° 0 mm 2 m/S 756 mmHg 96%
    04:00 +5°C° 0 mm 2 m/S 756 mmHg 97%
    05:00 +5°C° 0 mm 2 m/S 757 mmHg 97%
    06:00 +4°C° 0 mm 2 m/S 757 mmHg 97%
    07:00 +4°C° 0 mm 2 m/S 758 mmHg 97%
    08:00 +5°C° 0 mm 2 m/S 759 mmHg 95%
    09:00 +4°C° 0 mm 3 m/S 759 mmHg 93%
    10:00 +5°C° 0 mm 3 m/S 760 mmHg 92%
    11:00 +5°C° 0 mm 3 m/S 760 mmHg 89%
    12:00 +5°C° 0 mm 3 m/S 761 mmHg 86%
    13:00 +7°C° 0 mm 3 m/S 761 mmHg 84%
    14:00 +7°C° 0 mm 3 m/S 762 mmHg 80%
    15:00 +7°C° 0 mm 3 m/S 762 mmHg 77%
    16:00 +7°C° 0 mm 3 m/S 762 mmHg 73%
    17:00 +5°C° 0 mm 3 m/S 763 mmHg 70%
    18:00 +5°C° 0 mm 2 m/S 763 mmHg 67%
    19:00 +4°C° 0 mm 2 m/S 764 mmHg 64%
    20:00 +3°C° 0 mm 2 m/S 764 mmHg 61%
    21:00 +3°C° 0 mm 2 m/S 764 mmHg 57%
    22:00 +2°C° 0 mm 2 m/S 765 mmHg 54%
    23:00 +2°C° 0 mm 2 m/S 765 mmHg 55%

    23 Februar, Samstag

    Zeit Temperatur Niederschläge Wind Luftdruck Luftfeuchtigkeit
    00:00 +1°C° 0 mm 2 m/S 765 mmHg 57%
    01:00 +1°C° 0 mm 2 m/S 765 mmHg 59%
    02:00 +1°C° 0 mm 2 m/S 765 mmHg 59%
    03:00 +1°C° 0 mm 1 m/S 765 mmHg 59%
    04:00 +1°C° 0 mm 1 m/S 765 mmHg 59%
    05:00 +1°C° 0 mm 1 m/S 765 mmHg 58%
    06:00 +2°C° 0 mm 1 m/S 765 mmHg 57%
    07:00 +2°C° 0 mm 1 m/S 765 mmHg 56%
    08:00 +3°C° 0 mm 1 m/S 765 mmHg 52%
    09:00 +3°C° 0 mm 2 m/S 765 mmHg 47%
    10:00 +4°C° 0 mm 2 m/S 765 mmHg 43%
    11:00 +5°C° 0 mm 2 m/S 765 mmHg 46%
    12:00 +5°C° 0 mm 3 m/S 764 mmHg 48%
    13:00 +7°C° 0 mm 3 m/S 764 mmHg 51%
    14:00 +7°C° 0 mm 3 m/S 764 mmHg 57%
    15:00 +8°C° 0 mm 3 m/S 763 mmHg 64%
    16:00 +7°C° 0 mm 4 m/S 763 mmHg 70%
    17:00 +7°C° 0 mm 3 m/S 763 mmHg 77%
    18:00 +5°C° 0 mm 3 m/S 763 mmHg 84%
    19:00 +4°C° 0 mm 3 m/S 763 mmHg 90%
    20:00 +4°C° 0 mm 3 m/S 762 mmHg 91%
    21:00 +3°C° 0 mm 3 m/S 762 mmHg 91%
    22:00 +3°C° 0 mm 3 m/S 762 mmHg 91%
    23:00 +3°C° 0 mm 3 m/S 762 mmHg 92%
    Mehr zeigen